Weather History for KHEQ - April, 2014

Change the Weather History Date:

Saturday, April 19, 2014

  Actual Average Record
Temperature  
Mean Temperature 58 °F -  
Max Temperature 71 °F 65 °F 71 °F (2014)
Min Temperature 44 °F 37 °F 26 °F (2013)
Degree Days  
Heating Degree Days 8    
Growing Degree Days 8 (Base 50)    
Moisture  
Dew Point 40 °F    
Average Humidity 57    
Maximum Humidity 87    
Minimum Humidity 28    
Precipitation  
Precipitation 0.00 in - - ()
Sea Level Pressure  
Sea Level Pressure 29.97 in    
Wind  
Wind Speed 10 mph (NE)    
Max Wind Speed 23 mph    
Max Gust Speed 28 mph    
Visibility 10 miles    
Events      
Averages and records for this station are not official NWS values.
T = Trace of Precipitation, MM = Missing Value Source: NWS Daily Summary

Daily Weather History Graph

Daily Weather History Graph

Search for Another Location

Airport or City:

Trip Planner

Search our weather history database for the weather conditions in past years. The results will help you decide how hot, cold, wet, or windy it might be!

Date:

Astronomy

Apr. 19, 2014 Rise Set
Actual Time 6:04 AM MDT 7:32 PM MDT
Civil Twilight 5:35 AM MDT 8:01 PM MDT
Nautical Twilight 5:01 AM MDT 8:35 PM MDT
Astronomical Twilight 4:25 AM MDT 9:12 PM MDT
Moon No Moon Rise 9:24 AM MDT (4/19)
Length of Visible Light 14h 25m
Length of Day
13h 28m
Waning Gibbous, 78% of the Moon is Illuminated
Apr 19
Waning Gibbous
Apr 22
Last Quarter
Apr 29
New
May 6
First Quarter
May 14
Full

Hourly Weather History & Observations

Time (MDT) Temp. Windchill Dew Point Humidity Pressure Visibility Wind Dir Wind Speed Gust Speed Precip Events Conditions
12:15 AM 59.0 °F - 44.6 °F 59% 29.87 in 10.0 mi SSE 9.2 mph - N/A   Clear
12:35 AM 55.4 °F - 42.8 °F 63% 29.86 in 10.0 mi SSE 10.4 mph - N/A   Clear
12:55 AM 53.6 °F - 42.8 °F 67% 29.86 in 10.0 mi SSE 8.1 mph - N/A   Clear
1:15 AM 53.6 °F - 42.8 °F 67% 29.85 in 10.0 mi SSE 6.9 mph - N/A   Clear
1:35 AM 53.6 °F - 42.8 °F 67% 29.85 in 10.0 mi SE 4.6 mph - N/A   Clear
1:55 AM 53.6 °F - 44.6 °F 72% 29.84 in 10.0 mi SE 9.2 mph - N/A   Clear
2:15 AM 53.6 °F - 44.6 °F 72% 29.83 in 10.0 mi SSE 9.2 mph - N/A   Clear
2:35 AM 50.0 °F - 42.8 °F 76% 29.84 in 10.0 mi ESE 6.9 mph - N/A   Clear
2:55 AM 48.2 °F - 42.8 °F 82% 29.84 in 10.0 mi East 6.9 mph - N/A   Clear
3:15 AM 50.0 °F - 42.8 °F 76% 29.85 in 10.0 mi NE 3.5 mph - N/A   Clear
3:35 AM 48.2 °F - 41.0 °F 76% 29.85 in 10.0 mi SSE 5.8 mph - N/A   Clear
3:55 AM 50.0 °F - 42.8 °F 76% 29.85 in 10.0 mi Calm Calm - N/A   Clear
4:15 AM 48.2 °F - 41.0 °F 76% 29.85 in 10.0 mi SW 3.5 mph - N/A   Clear
4:35 AM 46.4 °F 42.9 °F 41.0 °F 81% 29.85 in 10.0 mi West 6.9 mph - N/A   Clear
4:55 AM 46.4 °F 44.3 °F 41.0 °F 81% 29.85 in 10.0 mi WNW 4.6 mph - N/A   Clear
5:15 AM 46.4 °F 42.9 °F 41.0 °F 81% 29.87 in 10.0 mi West 6.9 mph - N/A   Clear
5:35 AM 48.2 °F - 42.8 °F 82% 29.87 in 10.0 mi NW 6.9 mph - N/A   Clear
5:55 AM 48.2 °F - 42.8 °F 82% 29.88 in 10.0 mi NW 8.1 mph - N/A   Clear
6:15 AM 44.6 °F 41.4 °F 41.0 °F 87% 29.89 in 10.0 mi North 5.8 mph - N/A   Clear
6:35 AM 46.4 °F 42.9 °F 41.0 °F 81% 29.91 in 10.0 mi North 6.9 mph - N/A   Clear
6:55 AM 46.4 °F 41.9 °F 41.0 °F 81% 29.93 in 10.0 mi North 9.2 mph - N/A   Clear
7:15 AM 48.2 °F - 42.8 °F 82% 29.94 in 10.0 mi North 10.4 mph - N/A   Clear
7:35 AM 53.6 °F - 46.4 °F 77% 29.95 in 10.0 mi North 11.5 mph - N/A   Clear
7:55 AM 53.6 °F - 44.6 °F 72% 29.96 in 10.0 mi NNE 16.1 mph - N/A   Clear
8:15 AM 53.6 °F - 44.6 °F 72% 29.97 in 10.0 mi NNE 16.1 mph 24.2 mph N/A   Clear
8:35 AM 53.6 °F - 42.8 °F 67% 29.99 in 10.0 mi NNE 19.6 mph - N/A   Clear
8:55 AM 55.4 °F - 42.8 °F 63% 29.99 in 10.0 mi NNE 21.9 mph 26.5 mph N/A   Clear
9:15 AM 55.4 °F - 42.8 °F 63% 30.00 in 10.0 mi NNE 20.7 mph 27.6 mph N/A   Clear
9:35 AM 55.4 °F - 41.0 °F 58% 30.01 in 10.0 mi NNE 20.7 mph 27.6 mph N/A   Clear
9:55 AM 55.4 °F - 41.0 °F 58% 30.01 in 10.0 mi NNE 21.9 mph 26.5 mph N/A   Clear
10:15 AM 59.0 °F - 42.8 °F 55% 30.02 in 10.0 mi NNE 23.0 mph - N/A   Clear
10:35 AM 59.0 °F - 41.0 °F 51% 30.02 in 10.0 mi NNE 20.7 mph 25.3 mph N/A   Clear
10:55 AM 60.8 °F - 41.0 °F 48% 30.03 in 10.0 mi NNE 20.7 mph 27.6 mph N/A   Clear
11:15 AM 60.8 °F - 39.2 °F 45% 30.04 in 10.0 mi NE 18.4 mph 24.2 mph N/A   Clear
11:35 AM 60.8 °F - 37.4 °F 42% 30.05 in 10.0 mi NNE 16.1 mph - N/A   Clear
11:55 AM 60.8 °F - 37.4 °F 42% 30.03 in 10.0 mi NNE 18.4 mph 23.0 mph N/A   Clear
12:15 PM 62.6 °F - 39.2 °F 42% 30.04 in 10.0 mi NE 12.7 mph 19.6 mph N/A   Clear
12:35 PM 64.4 °F - 37.4 °F 37% 30.05 in 10.0 mi NE 11.5 mph 19.6 mph N/A   Scattered Clouds
12:55 PM 66.2 °F - 37.4 °F 35% 30.04 in 10.0 mi NNE 16.1 mph 20.7 mph N/A   Clear
1:15 PM 66.2 °F - 37.4 °F 35% 30.04 in 10.0 mi NNE 13.8 mph 20.7 mph N/A   Clear
1:35 PM 64.4 °F - 37.4 °F 37% 30.04 in 10.0 mi NNE 13.8 mph - N/A   Clear
1:55 PM 64.4 °F - 35.6 °F 34% 30.04 in 10.0 mi NE 11.5 mph - N/A   Mostly Cloudy
2:15 PM 66.2 °F - 35.6 °F 32% 30.04 in 10.0 mi NNE 12.7 mph 18.4 mph N/A   Overcast
2:35 PM 66.2 °F - 35.6 °F 32% 30.03 in 10.0 mi NNE 10.4 mph - N/A   Mostly Cloudy
2:55 PM 68.0 °F - 35.6 °F 30% 30.03 in 10.0 mi NE 13.8 mph 18.4 mph N/A   Mostly Cloudy
3:15 PM 69.8 °F - 35.6 °F 28% 30.01 in 10.0 mi NNE 13.8 mph - N/A   Scattered Clouds
3:35 PM 68.0 °F - 35.6 °F 30% 30.01 in 10.0 mi NE 11.5 mph 20.7 mph N/A   Scattered Clouds
3:55 PM 69.8 °F - 37.4 °F 31% 30.01 in 10.0 mi NE 12.7 mph 19.6 mph N/A   Scattered Clouds
4:15 PM 68.0 °F - 35.6 °F 30% 30.00 in 10.0 mi NE 11.5 mph 20.7 mph N/A   Clear
4:35 PM 71.6 °F - 37.4 °F 29% 29.99 in 10.0 mi ENE 12.7 mph - N/A   Clear
4:55 PM 69.8 °F - 35.6 °F 28% 29.99 in 10.0 mi NE 12.7 mph - N/A   Clear
5:15 PM 69.8 °F - 35.6 °F 28% 30.00 in 10.0 mi ENE 12.7 mph - N/A   Clear
5:35 PM 66.2 °F - 35.6 °F 32% 30.01 in 10.0 mi NE 11.5 mph - N/A   Scattered Clouds
5:55 PM 66.2 °F - 35.6 °F 32% 30.01 in 10.0 mi East 9.2 mph - N/A   Mostly Cloudy
6:15 PM 64.4 °F - 37.4 °F 37% 30.02 in 10.0 mi East 9.2 mph - N/A   Mostly Cloudy
6:35 PM 64.4 °F - 37.4 °F 37% 30.01 in 10.0 mi East 11.5 mph - N/A   Mostly Cloudy
6:55 PM 62.6 °F - 37.4 °F 39% 30.02 in 10.0 mi East 6.9 mph - N/A   Mostly Cloudy
7:15 PM 60.8 °F - 41.0 °F 48% 30.03 in 10.0 mi ESE 4.6 mph - N/A   Mostly Cloudy
7:35 PM 60.8 °F - 42.8 °F 52% 30.02 in 10.0 mi East 6.9 mph - N/A   Mostly Cloudy
7:55 PM 59.0 °F - 41.0 °F 51% 30.01 in 10.0 mi East 10.4 mph - N/A   Mostly Cloudy
8:15 PM 59.0 °F - 41.0 °F 51% 30.01 in 10.0 mi East 6.9 mph - N/A   Scattered Clouds
8:35 PM 53.6 °F - 39.2 °F 58% 30.01 in 10.0 mi East 10.4 mph - N/A   Scattered Clouds
8:55 PM 53.6 °F - 39.2 °F 58% 30.01 in 10.0 mi East 9.2 mph - N/A   Scattered Clouds
9:15 PM 51.8 °F - 41.0 °F 67% 30.03 in 10.0 mi East 6.9 mph - N/A   Scattered Clouds
9:35 PM 51.8 °F - 39.2 °F 62% 30.03 in 10.0 mi ESE 4.6 mph - N/A   Scattered Clouds
9:55 PM 51.8 °F - 39.2 °F 62% 30.03 in 10.0 mi ESE 4.6 mph - N/A   Scattered Clouds
10:15 PM 51.8 °F - 41.0 °F 67% 30.03 in 10.0 mi Calm Calm - N/A   Scattered Clouds
10:35 PM 46.4 °F - 35.6 °F 66% 30.04 in 10.0 mi Calm Calm - N/A   Scattered Clouds
10:55 PM 46.4 °F 45.2 °F 35.6 °F 66% 30.04 in 10.0 mi South 3.5 mph - N/A   Mostly Cloudy
11:15 PM 46.4 °F 45.2 °F 37.4 °F 71% 30.04 in 10.0 mi SW 3.5 mph - N/A   Scattered Clouds
11:35 PM 46.4 °F 45.2 °F 37.4 °F 71% 30.04 in 10.0 mi West 3.5 mph - N/A   Clear
11:55 PM 46.4 °F 44.3 °F 39.2 °F 76% 30.03 in 10.0 mi West 4.6 mph - N/A   Clear